Weather History for KMLC - August, 2013

Change the Weather History Date:

Sunday, August 25, 2013

  Actual Average Record
Temperature  
Mean Temperature 83 °F -  
Max Temperature 93 °F 92 °F 104 °F (2006)
Min Temperature 73 °F 69 °F 53 °F (1966)
Cooling Degree Days 18    
Growing Degree Days 33 (Base 50)    
Moisture  
Dew Point 69 °F    
Average Humidity 68    
Maximum Humidity 87    
Minimum Humidity 41    
Precipitation  
Precipitation 0.01 in - - ()
Sea Level Pressure  
Sea Level Pressure 30.12 in    
Wind  
Wind Speed 4 mph (ESE)    
Max Wind Speed 8 mph    
Max Gust Speed -    
Visibility 10 miles    
Events      
Averages and records for this station are not official NWS values.
T = Trace of Precipitation, MM = Missing Value Source: NWS Daily Summary

Daily Weather History Graph

Daily Weather History Graph

Search for Another Location

Airport or City:

Trip Planner

Search our weather history database for the weather conditions in past years. The results will help you decide how hot, cold, wet, or windy it might be!

Date:

Astronomy

Aug. 25, 2013 Rise Set
Actual Time 6:51 AM CDT 7:58 PM CDT
Civil Twilight 6:24 AM CDT 8:24 PM CDT
Nautical Twilight 5:53 AM CDT 8:55 PM CDT
Astronomical Twilight 5:21 AM CDT 9:27 PM CDT
Moon 10:45 PM CDT (8/25) 11:39 AM CDT (8/25)
Length of Visible Light 13h 59m
Length of Day
13h 07m
Waning Gibbous, 75% of the Moon is Illuminated
Aug 25
Waning Gibbous
Aug 28
Last Quarter
Sep 5
New
Sep 12
First Quarter
Sep 19
Full

Hourly Weather History & Observations

Time (CDT) Temp. Heat Index Dew Point Humidity Pressure Visibility Wind Dir Wind Speed Gust Speed Precip Events Conditions
12:53 AM 73.0 °F - 68.0 °F 84% 30.09 in 10.0 mi Calm Calm - N/A   Clear
1:53 AM 75.0 °F - 68.0 °F 79% 30.09 in 10.0 mi ENE 4.6 mph - N/A   Scattered Clouds
2:53 AM 75.0 °F - 68.0 °F 79% 30.10 in 10.0 mi East 4.6 mph - N/A   Clear
3:53 AM 75.0 °F - 68.0 °F 79% 30.11 in 10.0 mi East 4.6 mph - N/A   Clear
4:53 AM 73.9 °F - 68.0 °F 82% 30.11 in 10.0 mi ESE 4.6 mph - N/A   Clear
5:53 AM 73.9 °F - 69.1 °F 85% 30.13 in 10.0 mi ESE 4.6 mph - N/A   Clear
6:53 AM 73.0 °F - 69.1 °F 87% 30.15 in 10.0 mi ESE 5.8 mph - N/A   Clear
7:53 AM 75.0 °F - 69.1 °F 82% 30.16 in 10.0 mi ESE 4.6 mph - N/A   Clear
8:53 AM 79.0 °F - 70.0 °F 74% 30.16 in 10.0 mi Variable 5.8 mph - N/A   Partly Cloudy
9:53 AM 82.9 °F 87.0 °F 70.0 °F 65% 30.17 in 10.0 mi Variable 3.5 mph - N/A   Clear
10:53 AM 86.0 °F 90.7 °F 70.0 °F 59% 30.17 in 10.0 mi Variable 3.5 mph - N/A   Clear
11:53 AM 88.0 °F 92.1 °F 69.1 °F 53% 30.16 in 10.0 mi Variable 5.8 mph - N/A   Clear
12:53 PM 91.0 °F 96.6 °F 70.0 °F 50% 30.14 in 10.0 mi SSE 8.1 mph - N/A   Mostly Cloudy
1:53 PM 91.9 °F 95.9 °F 68.0 °F 45% 30.13 in 10.0 mi East 8.1 mph - N/A   Scattered Clouds
2:53 PM 93.9 °F 97.5 °F 66.9 °F 41% 30.11 in 10.0 mi Variable 4.6 mph - N/A   Clear
3:53 PM 93.0 °F 97.4 °F 68.0 °F 44% 30.09 in 10.0 mi Variable 6.9 mph - N/A   Scattered Clouds
4:53 PM 93.0 °F 95.9 °F 66.0 °F 41% 30.08 in 10.0 mi Variable 4.6 mph - N/A   Scattered Clouds
5:53 PM 84.9 °F 91.4 °F 73.0 °F 67% 30.09 in 10.0 mi SE 3.5 mph - 0.01 in   Partly Cloudy
6:53 PM 89.1 °F 93.7 °F 69.1 °F 52% 30.07 in 10.0 mi Calm Calm - N/A   Mostly Cloudy
7:53 PM 82.0 °F 86.7 °F 72.0 °F 71% 30.08 in 10.0 mi Calm Calm - N/A   Clear
8:53 PM 78.1 °F - 71.1 °F 79% 30.10 in 10.0 mi ESE 3.5 mph - N/A   Clear
9:53 PM 79.0 °F - 68.0 °F 69% 30.13 in 10.0 mi East 3.5 mph - N/A   Clear
10:53 PM 78.1 °F - 68.0 °F 71% 30.14 in 10.0 mi ESE 4.6 mph - N/A   Clear
11:53 PM 73.0 °F - 68.0 °F 84% 30.15 in 10.0 mi East 3.5 mph - N/A   Clear